Orbital Elements at Epoch 2459200.5 (2020-Dec-17.0) TDB
Reference: JPL 40 (heliocentric ecliptic J2000)
Element | Value | Uncertainty (1-sigma) | Units |
e | .1764309045368622 | 3.4588e-08 | |
a | 3.14015729915137 | 1.5094e-08 | au |
q | 2.586136506474063 | 1.1e-07 | au |
i | 1.920137162210238 | 4.3923e-06 | deg |
node | 139.9335924145261 | 0.00011378 | deg |
peri | 267.1926030142781 | 0.00011448 | deg |
M | 99.1885955476787 | 1.2271e-05 | deg |
tp | 2458640.504196506140 (2019-Jun-06.00419651) | 6.8251e-05 | TDB |
period | 2032.476497369941 5.56 | 1.4655e-05 4.012e-08 | d yr |
n | .1771238193729896 | 1.2771e-09 | deg/d |
Q | 3.694178091828676 | 1.7757e-08 | au |
|
| | Orbit Determination Parameters
Additional Information
|